,,,PA_Meas_PMT16A,,PR_Meas_QMR101_102,,RH_Meas_QMH101,,SR_Meas_QMS101,,TA_Meas_QMH101,,GenWind,,GenWind,
date,time,status,PA,status,PR,status,RH,status,SR,status,TA,status,DirAvg,status,SpdAvg,
2010-02-28, 00:00:04,VALID,1005.83,VALID,0,VALID,93.6674,VALID,0,VALID,24.4998,VALID,10,VALID,0.592969,
2010-02-28, 00:01:04,VALID,1005.83,VALID,0,VALID,93.7589,VALID,0,VALID,24.4998,VALID,10,VALID,0.455859,
2010-02-28, 00:02:04,VALID,1005.82,VALID,0,VALID,93.8429,VALID,0,VALID,24.5193,VALID,10,VALID,0.373437,
2010-02-28, 00:03:04,VALID,1005.79,VALID,0,VALID,93.8734,VALID,0,VALID,24.5406,VALID,10,VALID,0.260156,
2010-02-28, 00:04:04,VALID,1005.78,VALID,0,VALID,93.9268,VALID,0,VALID,24.5193,VALID,10,VALID,0.332812,
2010-02-28, 00:05:04,VALID,1005.77,VALID,0,VALID,93.9497,VALID,0,VALID,24.5212,VALID,10,VALID,0.355078,
2010-02-28, 00:06:04,VALID,1005.74,VALID,0,VALID,93.942,VALID,0,VALID,24.4998,VALID,10,VALID,0.417969,
2010-02-28, 00:07:04,VALID,1005.74,VALID,0,VALID,93.9573,VALID,0,VALID,24.4804,VALID,10,VALID,0.493359,
2010-02-28, 00:08:04,VALID,1005.78,VALID,0,VALID,93.9954,VALID,0,VALID,24.523,VALID,10,VALID,0.535547,
2010-02-28, 00:09:04,VALID,1005.78,VALID,0,VALID,94.0336,VALID,0,VALID,24.5017,VALID,10,VALID,0.573438,
2010-02-28, 00:10:04,VALID,1005.72,VALID,0,VALID,94.0717,VALID,0,VALID,24.5017,VALID,10,VALID,0.542969,
2010-02-28, 00:11:04,VALID,1005.74,VALID,0,VALID,94.0946,VALID,0,VALID,24.4822,VALID,10,VALID,0.437891,
2010-02-28, 00:12:04,VALID,1005.71,VALID,0,VALID,94.1251,VALID,0,VALID,24.4628,VALID,10,VALID,0.505469,
2010-02-28, 00:13:04,VALID,1005.7,VALID,0,VALID,94.1404,VALID,0,VALID,24.4414,VALID,10,VALID,0.422656,
2010-02-28, 00:14:04,VALID,1005.67,VALID,0,VALID,94.1709,VALID,0,VALID,24.4628,VALID,10,VALID,0.454688,
2010-02-28, 00:15:04,VALID,1005.69,VALID,0,VALID,94.2167,VALID,0,VALID,24.4433,VALID,10,VALID,0.4125,
2010-02-28, 00:16:04,VALID,1005.62,VALID,0,VALID,94.2319,VALID,0,VALID,24.422,VALID,10,VALID,0.483203,
2010-02-28, 00:17:04,VALID,1005.65,VALID,0,VALID,94.2853,VALID,0,VALID,24.4433,VALID,10,VALID,0.450781,
2010-02-28, 00:18:04,VALID,1005.64,VALID,0,VALID,94.293,VALID,0,VALID,24.422,VALID,10,VALID,0.455859,
2010-02-28, 00:19:04,VALID,1005.65,VALID,0,VALID,94.3006,VALID,0,VALID,24.383,VALID,10,VALID,0.592188,
2010-02-28, 00:20:04,VALID,1005.61,VALID,0,VALID,94.2777,VALID,0,VALID,24.3636,VALID,10,VALID,0.534375,
2010-02-28, 00:21:04,VALID,1005.57,VALID,0,VALID,94.2853,VALID,0,VALID,24.3459,VALID,10,VALID,0.330859,
2010-02-28, 00:22:04,VALID,1005.59,VALID,0,VALID,94.3311,VALID,0,VALID,24.3459,VALID,10,VALID,0,
2010-02-28, 00:23:04,VALID,1005.56,VALID,0,VALID,94.3769,VALID,0,VALID,24.3459,VALID,35,VALID,0.451172,
2010-02-28, 00:24:04,VALID,1005.55,VALID,0,VALID,94.4074,VALID,0,VALID,24.3265,VALID,72,VALID,0.299609,
2010-02-28, 00:25:04,VALID,1005.52,VALID,0,VALID,94.4379,VALID,0,VALID,24.307,VALID,72,VALID,0.189844,
2010-02-28, 00:26:04,VALID,1005.5,VALID,0,VALID,94.4761,VALID,0,VALID,24.307,VALID,72,VALID,0.29375,
2010-02-28, 00:27:04,VALID,1005.48,VALID,0,VALID,94.5447,VALID,0,VALID,24.3265,VALID,71,VALID,0.527734,
2010-02-28, 00:28:04,VALID,1005.44,VALID,0,VALID,94.5752,VALID,0,VALID,24.307,VALID,71,VALID,0.316406,
2010-02-28, 00:29:04,VALID,1005.39,VALID,0,VALID,94.6286,VALID,0,VALID,24.307,VALID,71,VALID,0.317578,
2010-02-28, 00:30:04,VALID,1005.4,VALID,0,VALID,94.6515,VALID,0,VALID,24.307,VALID,71,VALID,0.165234,
2010-02-28, 00:31:04,VALID,1005.38,VALID,0,VALID,94.6744,VALID,0,VALID,24.3088,VALID,71,VALID,0.288672,
2010-02-28, 00:32:04,VALID,1005.39,VALID,0,VALID,94.6668,VALID,0,VALID,24.2468,VALID,62,VALID,0.2875,
2010-02-28, 00:33:04,VALID,1005.37,VALID,0,VALID,94.682,VALID,0,VALID,24.2681,VALID,62,VALID,0.159375,
2010-02-28, 00:34:04,VALID,1005.37,VALID,0,VALID,94.6973,VALID,0,VALID,24.2291,VALID,62,VALID,0.140234,
2010-02-28, 00:35:04,VALID,1005.39,VALID,0,VALID,94.7125,VALID,0,VALID,24.2291,VALID,62,VALID,0,
2010-02-28, 00:36:04,VALID,1005.39,VALID,0,VALID,94.6973,VALID,0,VALID,24.2097,VALID,62,VALID,0.38125,
2010-02-28, 00:37:04,VALID,1005.41,VALID,0,VALID,94.7125,VALID,0,VALID,24.2097,VALID,62,VALID,0.282031,
2010-02-28, 00:38:04,VALID,1005.39,VALID,0,VALID,94.7354,VALID,0,VALID,24.1902,VALID,62,VALID,0.0707031,
2010-02-28, 00:39:04,VALID,1005.36,VALID,0,VALID,94.7431,VALID,0,VALID,24.1707,VALID,62,VALID,0.0078125,
2010-02-28, 00:40:04,VALID,1005.36,VALID,0,VALID,94.7431,VALID,0.100563,VALID,24.1707,VALID,62,VALID,0,
2010-02-28, 00:41:04,VALID,1005.34,VALID,0,VALID,94.7431,VALID,0,VALID,24.1105,VALID,62,VALID,0,
2010-02-28, 00:42:04,VALID,1005.34,VALID,0,VALID,94.7507,VALID,0.100563,VALID,24.1318,VALID,62,VALID,0.148438,
2010-02-28, 00:43:04,VALID,1005.34,VALID,0,VALID,94.7507,VALID,0,VALID,24.1105,VALID,62,VALID,0.279687,
2010-02-28, 00:44:04,VALID,1005.29,VALID,0,VALID,94.766,VALID,0,VALID,24.091,VALID,62,VALID,0.359375,
2010-02-28, 00:45:04,VALID,1005.31,VALID,0,VALID,94.766,VALID,0,VALID,24.0929,VALID,62,VALID,0.362891,
2010-02-28, 00:46:04,VALID,1005.29,VALID,0,VALID,94.7888,VALID,0,VALID,24.0539,VALID,62,VALID,0.354297,
2010-02-28, 00:47:04,VALID,1005.28,VALID,0,VALID,94.8041,VALID,0,VALID,24.0345,VALID,62,VALID,0.261328,
2010-02-28, 00:48:04,VALID,1005.3,VALID,0,VALID,94.8117,VALID,0,VALID,24.015,VALID,62,VALID,0.228125,
2010-02-28, 00:49:04,VALID,1005.28,VALID,0,VALID,94.7736,VALID,0,VALID,23.9761,VALID,62,VALID,0,
2010-02-28, 00:50:04,VALID,1005.27,VALID,0,VALID,94.8041,VALID,0,VALID,23.9761,VALID,62,VALID,0,
2010-02-28, 00:51:04,VALID,1005.31,VALID,0,VALID,94.8117,VALID,0,VALID,23.9159,VALID,62,VALID,0.344141,
2010-02-28, 00:52:04,VALID,1005.29,VALID,0,VALID,94.8422,VALID,0,VALID,23.9371,VALID,62,VALID,0.232422,
2010-02-28, 00:53:04,VALID,1005.28,VALID,0,VALID,94.8575,VALID,0,VALID,23.9159,VALID,15,VALID,0.655078,
2010-02-28, 00:54:04,VALID,1005.28,VALID,0,VALID,94.8651,VALID,0,VALID,23.8964,VALID,13,VALID,0.382031,
2010-02-28, 00:55:04,VALID,1005.28,VALID,0,VALID,94.9262,VALID,0,VALID,23.9159,VALID,13,VALID,0.0644531,
2010-02-28, 00:56:04,VALID,1005.26,VALID,0,VALID,94.9567,VALID,0,VALID,23.9566,VALID,13,VALID,0,
2010-02-28, 00:57:04,VALID,1005.25,VALID,0,VALID,94.9643,VALID,0,VALID,23.9548,VALID,262,VALID,0.190625,
2010-02-28, 00:58:04,VALID,1005.22,VALID,0,VALID,95.0101,VALID,0,VALID,23.9955,VALID,262,VALID,0,
2010-02-28, 00:59:04,VALID,1005.22,VALID,0,VALID,95.0253,VALID,0,VALID,24.0326,VALID,294,VALID,0.149219,
2010-02-28, 01:00:04,VALID,1005.2,VALID,0,VALID,95.0711,VALID,0,VALID,24.0326,VALID,294,VALID,0.244141,
2010-02-28, 01:01:04,VALID,1005.16,VALID,0,VALID,95.1016,VALID,0.100563,VALID,24.0521,VALID,319,VALID,0.230078,
2010-02-28, 01:02:04,VALID,1005.14,VALID,0,VALID,95.1093,VALID,0,VALID,24.0308,VALID,327,VALID,0.261328,
2010-02-28, 01:03:04,VALID,1005.14,VALID,0,VALID,95.1245,VALID,0,VALID,24.0716,VALID,354,VALID,0.541797,
2010-02-28, 01:04:04,VALID,1005.12,VALID,0,VALID,95.1245,VALID,0,VALID,24.091,VALID,352,VALID,0.253125,
2010-02-28, 01:05:04,VALID,1005.1,VALID,0,VALID,95.1321,VALID,0,VALID,24.091,VALID,296,VALID,0.0632813,
2010-02-28, 01:06:04,VALID,1005.11,VALID,0,VALID,95.1321,VALID,0,VALID,24.091,VALID,285,VALID,0.394531,
2010-02-28, 01:07:04,VALID,1005.11,VALID,0,VALID,95.1398,VALID,0,VALID,24.13,VALID,343,VALID,0.241406,
2010-02-28, 01:08:04,VALID,1005.08,VALID,0,VALID,95.1398,VALID,0,VALID,24.1707,VALID,343,VALID,0.078125,
2010-02-28, 01:09:04,VALID,1005.06,VALID,0,VALID,95.1016,VALID,0,VALID,24.1707,VALID,343,VALID,0.194922,
2010-02-28, 01:10:04,VALID,1005.05,VALID,0,VALID,95.1093,VALID,0,VALID,24.1494,VALID,343,VALID,0,
2010-02-28, 01:11:04,VALID,1005.01,VALID,0,VALID,95.0711,VALID,0,VALID,24.1902,VALID,343,VALID,0.0515625,
2010-02-28, 01:12:04,VALID,1004.99,VALID,0,VALID,95.0558,VALID,0,VALID,24.1884,VALID,349,VALID,0.084375,
2010-02-28, 01:13:04,VALID,1004.97,VALID,0,VALID,95.0253,VALID,0,VALID,24.1884,VALID,347,VALID,0.341406,
2010-02-28, 01:14:04,VALID,1004.92,VALID,0,VALID,95.0406,VALID,0,VALID,24.2291,VALID,347,VALID,0.255469,
2010-02-28, 01:15:04,VALID,1004.94,VALID,0,VALID,94.9948,VALID,0,VALID,24.2273,VALID,334,VALID,0.133984,
2010-02-28, 01:16:04,VALID,1004.93,VALID,0,VALID,94.9567,VALID,0,VALID,24.2468,VALID,334,VALID,0.182422,
2010-02-28, 01:17:04,VALID,1004.9,VALID,0,VALID,94.9185,VALID,0,VALID,24.2486,VALID,334,VALID,0,
2010-02-28, 01:18:04,VALID,1004.93,VALID,0,VALID,94.8804,VALID,0,VALID,24.2681,VALID,334,VALID,0,
2010-02-28, 01:19:04,VALID,1004.88,VALID,0,VALID,94.8575,VALID,0,VALID,24.2468,VALID,334,VALID,0,
2010-02-28, 01:20:04,VALID,1004.88,VALID,0,VALID,94.8194,VALID,0,VALID,24.2681,VALID,274,VALID,0,
2010-02-28, 01:21:04,VALID,1004.87,VALID,0,VALID,94.7125,VALID,0,VALID,24.2486,VALID,194,VALID,0,
2010-02-28, 01:22:04,VALID,1004.88,VALID,0,VALID,94.6744,VALID,0,VALID,24.1884,VALID,194,VALID,0,
2010-02-28, 01:23:04,VALID,1004.9,VALID,0,VALID,94.6286,VALID,0,VALID,24.1689,VALID,194,VALID,0,
2010-02-28, 01:24:04,VALID,1004.89,VALID,0,VALID,94.5905,VALID,0,VALID,24.1902,VALID,194,VALID,0,
2010-02-28, 01:25:04,VALID,1004.87,VALID,0,VALID,94.5829,VALID,0,VALID,24.1494,VALID,194,VALID,0,
2010-02-28, 01:26:04,VALID,1004.86,VALID,0,VALID,94.5523,VALID,0,VALID,24.13,VALID,194,VALID,0,
2010-02-28, 01:27:04,VALID,1004.89,VALID,0,VALID,94.5371,VALID,0,VALID,24.1318,VALID,194,VALID,0,
2010-02-28, 01:28:04,VALID,1004.88,VALID,0,VALID,94.5523,VALID,0,VALID,24.091,VALID,194,VALID,0,
2010-02-28, 01:29:04,VALID,1004.91,VALID,0,VALID,94.5523,VALID,0,VALID,24.0716,VALID,194,VALID,0,
2010-02-28, 01:30:04,VALID,1004.91,VALID,0,VALID,94.5829,VALID,0,VALID,24.0716,VALID,194,VALID,0,
2010-02-28, 01:31:04,VALID,1004.89,VALID,0,VALID,94.5981,VALID,0,VALID,24.0716,VALID,194,VALID,0,
2010-02-28, 01:32:04,VALID,1004.89,VALID,0,VALID,94.6134,VALID,0,VALID,24.0716,VALID,194,VALID,0,
2010-02-28, 01:33:04,VALID,1004.89,VALID,0,VALID,94.6286,VALID,0,VALID,24.091,VALID,194,VALID,0,
2010-02-28, 01:34:04,VALID,1004.85,VALID,0,VALID,94.6744,VALID,0,VALID,24.0716,VALID,194,VALID,0,
2010-02-28, 01:35:04,VALID,1004.86,VALID,0,VALID,94.6668,VALID,0,VALID,24.0716,VALID,194,VALID,0,
2010-02-28, 01:36:04,VALID,1004.85,VALID,0,VALID,94.6744,VALID,0,VALID,24.0716,VALID,194,VALID,0,
2010-02-28, 01:37:04,VALID,1004.83,VALID,0,VALID,94.7202,VALID,0,VALID,24.1105,VALID,112,VALID,0.211328,
2010-02-28, 01:38:04,VALID,1004.79,VALID,0,VALID,94.6897,VALID,0,VALID,24.0521,VALID,76,VALID,0.355859,
2010-02-28, 01:39:04,VALID,1004.79,VALID,0,VALID,94.6286,VALID,0,VALID,24.0326,VALID,313,VALID,0.501562,
2010-02-28, 01:40:04,VALID,1004.81,VALID,0,VALID,94.7278,VALID,0,VALID,24.1513,VALID,334,VALID,0.508203,
2010-02-28, 01:41:04,VALID,1004.77,VALID,0,VALID,94.7507,VALID,0,VALID,24.1494,VALID,341,VALID,0.258203,
2010-02-28, 01:42:04,VALID,1004.78,VALID,0,VALID,94.6744,VALID,0,VALID,24.1494,VALID,341,VALID,0,
2010-02-28, 01:43:04,VALID,1004.77,VALID,0,VALID,94.5905,VALID,0,VALID,24.1494,VALID,341,VALID,0,
2010-02-28, 01:44:04,VALID,1004.75,VALID,0,VALID,94.5142,VALID,0,VALID,24.13,VALID,341,VALID,0,
2010-02-28, 01:45:04,VALID,1004.74,VALID,0,VALID,94.4227,VALID,0,VALID,24.1531,VALID,337,VALID,0.0222656,
2010-02-28, 01:46:04,VALID,1004.75,VALID,0,VALID,94.3769,VALID,0,VALID,24.1318,VALID,288,VALID,0.288672,
2010-02-28, 01:47:04,VALID,1004.75,VALID,0,VALID,94.3921,VALID,0,VALID,24.1513,VALID,288,VALID,0,
2010-02-28, 01:48:04,VALID,1004.72,VALID,0,VALID,94.3845,VALID,0,VALID,24.1513,VALID,288,VALID,0,
2010-02-28, 01:49:04,VALID,1004.73,VALID,0,VALID,94.3387,VALID,0,VALID,24.1318,VALID,288,VALID,0,
2010-02-28, 01:50:04,VALID,1004.73,VALID,0,VALID,94.3235,VALID,0,VALID,24.1318,VALID,288,VALID,0,
2010-02-28, 01:51:04,VALID,1004.71,VALID,0,VALID,94.354,VALID,0,VALID,24.1318,VALID,288,VALID,0.211328,
2010-02-28, 01:52:04,VALID,1004.72,VALID,0,VALID,94.3769,VALID,0,VALID,24.1318,VALID,288,VALID,0,
2010-02-28, 01:53:04,VALID,1004.7,VALID,0,VALID,94.3769,VALID,0,VALID,24.1513,VALID,288,VALID,0.155859,
2010-02-28, 01:54:04,VALID,1004.68,VALID,0,VALID,94.3845,VALID,0,VALID,24.1726,VALID,288,VALID,0.0722656,
2010-02-28, 01:55:04,VALID,1004.68,VALID,0,VALID,94.415,VALID,0,VALID,24.1707,VALID,288,VALID,0,
2010-02-28, 01:56:04,VALID,1004.66,VALID,0,VALID,94.4074,VALID,0,VALID,24.1513,VALID,288,VALID,0,
2010-02-28, 01:57:04,VALID,1004.67,VALID,0,VALID,94.3769,VALID,0,VALID,24.1707,VALID,288,VALID,0.377734,
2010-02-28, 01:58:04,VALID,1004.67,VALID,0,VALID,94.4379,VALID,0,VALID,24.1689,VALID,308,VALID,0.374609,
2010-02-28, 01:59:04,VALID,1004.66,VALID,0,VALID,94.4684,VALID,0,VALID,24.2699,VALID,335,VALID,0.592188,
2010-02-28, 02:00:04,VALID,1004.65,VALID,0,VALID,94.5066,VALID,0,VALID,24.3088,VALID,359,VALID,0.351172,
2010-02-28, 02:01:04,VALID,1004.63,VALID,0,VALID,94.4532,VALID,0,VALID,24.3867,VALID,5,VALID,1.1168,
2010-02-28, 02:02:04,VALID,1004.62,VALID,0,VALID,94.3616,VALID,0,VALID,24.4238,VALID,360,VALID,0.767187,
2010-02-28, 02:03:04,VALID,1004.6,VALID,0,VALID,94.2167,VALID,0,VALID,24.5054,VALID,348,VALID,0.83125,
2010-02-28, 02:04:04,VALID,1004.6,VALID,0,VALID,93.9878,VALID,0,VALID,24.523,VALID,354,VALID,0.667578,
2010-02-28, 02:05:04,VALID,1004.57,VALID,0,VALID,93.7361,VALID,0,VALID,24.5212,VALID,350,VALID,0.801953,
2010-02-28, 02:06:04,VALID,1004.6,VALID,0,VALID,93.4996,VALID,0,VALID,24.5601,VALID,355,VALID,0.765625,
2010-02-28, 02:07:04,VALID,1004.6,VALID,0,VALID,93.3088,VALID,0,VALID,24.5796,VALID,349,VALID,0.826953,
2010-02-28, 02:08:04,VALID,1004.55,VALID,0,VALID,93.1029,VALID,0,VALID,24.599,VALID,337,VALID,0.680859,
2010-02-28, 02:09:04,VALID,1004.53,VALID,0,VALID,92.9808,VALID,0,VALID,24.6398,VALID,350,VALID,0.896875,
2010-02-28, 02:10:04,VALID,1004.51,VALID,0,VALID,92.8282,VALID,0,VALID,24.6398,VALID,353,VALID,0.68125,
2010-02-28, 02:11:04,VALID,1004.48,VALID,0,VALID,92.6909,VALID,0,VALID,24.6593,VALID,341,VALID,0.798828,
2010-02-28, 02:12:04,VALID,1004.51,VALID,0,VALID,92.546,VALID,0,VALID,24.638,VALID,335,VALID,0.358594,
2010-02-28, 02:13:04,VALID,1004.47,VALID,0,VALID,92.4468,VALID,0,VALID,24.6788,VALID,345,VALID,0.830078,
2010-02-28, 02:14:04,VALID,1004.47,VALID,0,VALID,92.401,VALID,0,VALID,24.6769,VALID,1,VALID,0.849219,
2010-02-28, 02:15:04,VALID,1004.45,VALID,0,VALID,92.3629,VALID,0,VALID,24.6945,VALID,348,VALID,1.11602,
2010-02-28, 02:16:04,VALID,1004.43,VALID,0,VALID,92.3095,VALID,0,VALID,24.714,VALID,359,VALID,0.842578,
2010-02-28, 02:17:04,VALID,1004.42,VALID,0,VALID,92.1416,VALID,0,VALID,24.7335,VALID,4,VALID,0.829297,
2010-02-28, 02:18:04,VALID,1004.43,VALID,0,VALID,91.9814,VALID,0,VALID,24.7529,VALID,1,VALID,0.890625,
2010-02-28, 02:19:04,VALID,1004.42,VALID,0,VALID,91.7525,VALID,0,VALID,24.8132,VALID,358,VALID,0.833594,
2010-02-28, 02:20:04,VALID,1004.39,VALID,0,VALID,91.5618,VALID,0,VALID,24.8113,VALID,8,VALID,0.545313,
2010-02-28, 02:21:04,VALID,1004.39,VALID,0,VALID,91.3711,VALID,0,VALID,24.8522,VALID,1,VALID,0.595703,
2010-02-28, 02:22:04,VALID,1004.38,VALID,0,VALID,91.2033,VALID,0,VALID,24.8308,VALID,359,VALID,0.726563,
2010-02-28, 02:23:04,VALID,1004.35,VALID,0,VALID,91.0125,VALID,0,VALID,24.8697,VALID,10,VALID,1.35977,
2010-02-28, 02:24:04,VALID,1004.39,VALID,0,VALID,90.6692,VALID,0,VALID,24.93,VALID,351,VALID,0.808203,
2010-02-28, 02:25:04,VALID,1004.37,VALID,0,VALID,90.3793,VALID,0,VALID,24.9282,VALID,1,VALID,1.13477,
2010-02-28, 02:26:04,VALID,1004.36,VALID,0,VALID,90.1963,VALID,0,VALID,24.969,VALID,6,VALID,1.01797,
2010-02-28, 02:27:04,VALID,1004.36,VALID,0,VALID,89.914,VALID,0,VALID,24.9866,VALID,4,VALID,1.23984,
2010-02-28, 02:28:04,VALID,1004.36,VALID,0,VALID,89.5554,VALID,0,VALID,25.0041,VALID,359,VALID,1.38242,
2010-02-28, 02:29:04,VALID,1004.35,VALID,0,VALID,89.2732,VALID,0.100563,VALID,25.0839,VALID,359,VALID,1.26523,
2010-02-28, 02:30:04,VALID,1004.39,VALID,0,VALID,89.0824,VALID,0.100563,VALID,25.1034,VALID,359,VALID,1.21992,
2010-02-28, 02:31:04,VALID,1004.4,VALID,0,VALID,88.8688,VALID,0,VALID,25.1423,VALID,6,VALID,1.18008,
2010-02-28, 02:32:04,VALID,1004.38,VALID,0,VALID,88.762,VALID,0,VALID,25.1832,VALID,353,VALID,1.38906,
2010-02-28, 02:33:04,VALID,1004.39,VALID,0,VALID,88.6323,VALID,0,VALID,25.1813,VALID,1,VALID,1.57344,
2010-02-28, 02:34:04,VALID,1004.39,VALID,0,VALID,88.4569,VALID,0,VALID,25.2221,VALID,359,VALID,0.99375,
2010-02-28, 02:35:04,VALID,1004.4,VALID,0,VALID,88.3424,VALID,0,VALID,25.2397,VALID,9,VALID,0.978125,
2010-02-28, 02:36:04,VALID,1004.44,VALID,0,VALID,88.3043,VALID,0,VALID,25.2397,VALID,11,VALID,1.06172,
2010-02-28, 02:37:04,VALID,1004.42,VALID,0,VALID,88.2814,VALID,0,VALID,25.2397,VALID,1,VALID,0.898828,
2010-02-28, 02:38:04,VALID,1004.44,VALID,0,VALID,88.1746,VALID,0,VALID,25.2397,VALID,14,VALID,1.05313,
2010-02-28, 02:39:04,VALID,1004.41,VALID,0,VALID,88.0754,VALID,0,VALID,25.2592,VALID,357,VALID,1.0418,
2010-02-28, 02:40:04,VALID,1004.38,VALID,0,VALID,87.9457,VALID,0,VALID,25.2786,VALID,353,VALID,1.0207,
2010-02-28, 02:41:04,VALID,1004.4,VALID,0,VALID,87.8923,VALID,0,VALID,25.2786,VALID,14,VALID,1.31758,
2010-02-28, 02:42:04,VALID,1004.36,VALID,0,VALID,87.8313,VALID,0,VALID,25.3176,VALID,353,VALID,0.948047,
2010-02-28, 02:43:04,VALID,1004.36,VALID,0,VALID,87.7016,VALID,0,VALID,25.339,VALID,29,VALID,0.796875,
2010-02-28, 02:44:04,VALID,1004.37,VALID,0,VALID,87.7245,VALID,0,VALID,25.3195,VALID,29,VALID,0.732031,
2010-02-28, 02:45:04,VALID,1004.34,VALID,0,VALID,87.8771,VALID,0.100563,VALID,25.2981,VALID,31,VALID,0.469141,
2010-02-28, 02:46:04,VALID,1004.36,VALID,0,VALID,87.9381,VALID,0,VALID,25.2786,VALID,42,VALID,0.437109,
2010-02-28, 02:47:04,VALID,1004.35,VALID,0,VALID,87.9839,VALID,0,VALID,25.2397,VALID,46,VALID,0.414453,
2010-02-28, 02:48:04,VALID,1004.34,VALID,0,VALID,88.0831,VALID,0,VALID,25.2221,VALID,25,VALID,0.577734,
2010-02-28, 02:49:04,VALID,1004.32,VALID,0,VALID,88.1441,VALID,0,VALID,25.2046,VALID,28,VALID,0.260547,
2010-02-28, 02:50:04,VALID,1004.36,VALID,0,VALID,88.3272,VALID,0,VALID,25.1442,VALID,18,VALID,0.933594,
2010-02-28, 02:51:04,VALID,1004.34,VALID,0,VALID,88.5103,VALID,0,VALID,25.1442,VALID,38,VALID,0.806641,
2010-02-28, 02:52:04,VALID,1004.37,VALID,0,VALID,88.5637,VALID,0,VALID,25.1442,VALID,31,VALID,0.658203,
2010-02-28, 02:53:04,VALID,1004.36,VALID,0,VALID,88.7239,VALID,0,VALID,25.1637,VALID,34,VALID,0.796875,
2010-02-28, 02:54:04,VALID,1004.38,VALID,0,VALID,88.6476,VALID,0,VALID,25.1618,VALID,19,VALID,1.32383,
2010-02-28, 02:55:04,VALID,1004.36,VALID,0,VALID,88.6476,VALID,0,VALID,25.2416,VALID,21,VALID,1.06953,
2010-02-28, 02:56:04,VALID,1004.39,VALID,0,VALID,88.4187,VALID,0,VALID,25.2806,VALID,360,VALID,0.625391,
2010-02-28, 02:57:04,VALID,1004.39,VALID,0,VALID,88.3501,VALID,0,VALID,25.2806,VALID,9,VALID,0.791016,
2010-02-28, 02:58:04,VALID,1004.36,VALID,0,VALID,88.4187,VALID,0,VALID,25.3,VALID,3,VALID,1.39531,
2010-02-28, 02:59:04,VALID,1004.35,VALID,0,VALID,88.1822,VALID,0,VALID,25.339,VALID,17,VALID,0.677734,
2010-02-28, 03:00:04,VALID,1004.32,VALID,0,VALID,88.2204,VALID,0,VALID,25.339,VALID,6,VALID,1.46328,
2010-02-28, 03:01:04,VALID,1004.32,VALID,0,VALID,88.1746,VALID,0,VALID,25.3584,VALID,6,VALID,0.745313,
2010-02-28, 03:02:04,VALID,1004.33,VALID,0,VALID,88.1593,VALID,0,VALID,25.3584,VALID,1,VALID,0.736328,
2010-02-28, 03:03:04,VALID,1004.32,VALID,0,VALID,88.2585,VALID,0,VALID,25.337,VALID,4,VALID,0.758594,
2010-02-28, 03:04:04,VALID,1004.3,VALID,0,VALID,88.2814,VALID,0,VALID,25.3584,VALID,1,VALID,0.576563,
2010-02-28, 03:05:04,VALID,1004.3,VALID,0,VALID,88.3348,VALID,0.100563,VALID,25.337,VALID,356,VALID,0.70625,
2010-02-28, 03:06:04,VALID,1004.3,VALID,0,VALID,88.3348,VALID,0,VALID,25.337,VALID,355,VALID,0.444531,
2010-02-28, 03:07:04,VALID,1004.33,VALID,0,VALID,88.4569,VALID,0,VALID,25.3779,VALID,360,VALID,0.601563,
2010-02-28, 03:08:04,VALID,1004.33,VALID,0,VALID,88.5484,VALID,0.100563,VALID,25.3584,VALID,330,VALID,0.591797,
2010-02-28, 03:09:04,VALID,1004.34,VALID,0,VALID,88.5866,VALID,0,VALID,25.337,VALID,332,VALID,0.710156,
2010-02-28, 03:10:04,VALID,1004.36,VALID,0,VALID,88.6552,VALID,0,VALID,25.339,VALID,11,VALID,0.282813,
2010-02-28, 03:11:04,VALID,1004.35,VALID,0,VALID,88.7468,VALID,0.100563,VALID,25.3176,VALID,7,VALID,0.235547,
2010-02-28, 03:12:04,VALID,1004.34,VALID,0,VALID,88.8154,VALID,0.100563,VALID,25.2981,VALID,352,VALID,0.796094,
2010-02-28, 03:13:04,VALID,1004.33,VALID,0,VALID,88.701,VALID,0.100563,VALID,25.2981,VALID,221,VALID,0.877344,
2010-02-28, 03:14:04,VALID,1004.32,VALID,0,VALID,88.1517,VALID,0,VALID,25.2007,VALID,215,VALID,1.09023,
2010-02-28, 03:15:04,VALID,1004.31,VALID,0,VALID,88.6552,VALID,0,VALID,25.0644,VALID,209,VALID,1.18438,
2010-02-28, 03:16:04,VALID,1004.34,VALID,0,VALID,89.2808,VALID,0.100563,VALID,24.9671,VALID,10,VALID,0.725391,
2010-02-28, 03:17:04,VALID,1004.31,VALID,0,VALID,89.6622,VALID,0.100563,VALID,24.8911,VALID,301,VALID,0.598437,
2010-02-28, 03:18:04,VALID,1004.31,VALID,0,VALID,89.7767,VALID,0,VALID,24.7724,VALID,211,VALID,1.12109,
2010-02-28, 03:19:04,VALID,1004.34,VALID,0,VALID,90.1963,VALID,0,VALID,24.6769,VALID,218,VALID,0.255469,
2010-02-28, 03:20:04,VALID,1004.32,VALID,0,VALID,90.5777,VALID,0,VALID,24.5796,VALID,218,VALID,0,
2010-02-28, 03:21:04,VALID,1004.32,VALID,0,VALID,91.0583,VALID,0.100563,VALID,24.4804,VALID,218,VALID,0.866797,
2010-02-28, 03:22:04,VALID,1004.35,VALID,0,VALID,91.6229,VALID,0,VALID,24.3636,VALID,228,VALID,0.774609,
2010-02-28, 03:23:04,VALID,1004.33,VALID,0,VALID,92.0653,VALID,0.100563,VALID,24.3052,VALID,228,VALID,0.573438,
2010-02-28, 03:24:04,VALID,1004.36,VALID,0,VALID,92.5002,VALID,0,VALID,24.2468,VALID,228,VALID,0.520312,
2010-02-28, 03:25:04,VALID,1004.36,VALID,0,VALID,92.8358,VALID,0,VALID,24.2273,VALID,228,VALID,0.386328,
2010-02-28, 03:26:04,VALID,1004.36,VALID,0,VALID,93.0495,VALID,0,VALID,24.1884,VALID,241,VALID,0.333203,
2010-02-28, 03:27:04,VALID,1004.39,VALID,0,VALID,93.2173,VALID,0,VALID,24.1902,VALID,263,VALID,0.203125,
2010-02-28, 03:28:04,VALID,1004.41,VALID,0,VALID,93.4385,VALID,0,VALID,24.1884,VALID,252,VALID,0.341797,
2010-02-28, 03:29:04,VALID,1004.37,VALID,0,VALID,93.5453,VALID,0.100563,VALID,24.1884,VALID,268,VALID,0.419141,
2010-02-28, 03:30:04,VALID,1004.38,VALID,0,VALID,93.5987,VALID,0.100563,VALID,24.1884,VALID,291,VALID,0.400781,
2010-02-28, 03:31:04,VALID,1004.39,VALID,0,VALID,93.675,VALID,0.100563,VALID,24.1689,VALID,310,VALID,0.683203,
2010-02-28, 03:32:04,VALID,1004.39,VALID,0,VALID,93.6826,VALID,0,VALID,24.1689,VALID,291,VALID,0.635547,
2010-02-28, 03:33:04,VALID,1004.39,VALID,0,VALID,93.6903,VALID,0.100563,VALID,24.1689,VALID,334,VALID,0.512891,
2010-02-28, 03:34:04,VALID,1004.42,VALID,0,VALID,93.6826,VALID,0.100563,VALID,24.1494,VALID,353,VALID,0.496484,
2010-02-28, 03:35:04,VALID,1004.38,VALID,0,VALID,93.6598,VALID,0.100563,VALID,24.13,VALID,353,VALID,0.205469,
2010-02-28, 03:36:04,VALID,1004.42,VALID,0,VALID,93.6445,VALID,0.100563,VALID,24.091,VALID,353,VALID,0.286328,
2010-02-28, 03:37:04,VALID,1004.39,VALID,0,VALID,93.6826,VALID,0,VALID,24.0716,VALID,353,VALID,0.214453,
2010-02-28, 03:38:04,VALID,1004.39,VALID,0,VALID,93.7513,VALID,0.100563,VALID,24.0521,VALID,353,VALID,0.123438,
2010-02-28, 03:39:04,VALID,1004.37,VALID,0,VALID,93.7895,VALID,0.100563,VALID,24.0539,VALID,353,VALID,0,
2010-02-28, 03:40:04,VALID,1004.4,VALID,0,VALID,93.8429,VALID,0.100563,VALID,23.9937,VALID,353,VALID,0,
2010-02-28, 03:41:04,VALID,1004.4,VALID,0,VALID,93.9344,VALID,0.100563,VALID,23.9742,VALID,353,VALID,0.00820312,
2010-02-28, 03:42:04,VALID,1004.4,VALID,0,VALID,93.9954,VALID,0.100563,VALID,23.9742,VALID,353,VALID,0,
2010-02-28, 03:43:04,VALID,1004.39,VALID,0,VALID,94.0641,VALID,0.100563,VALID,23.9566,VALID,353,VALID,0,
2010-02-28, 03:44:04,VALID,1004.37,VALID,0,VALID,94.1328,VALID,0.100563,VALID,23.9353,VALID,353,VALID,0,
2010-02-28, 03:45:04,VALID,1004.38,VALID,0,VALID,94.1938,VALID,0.100563,VALID,23.9353,VALID,353,VALID,0,
2010-02-28, 03:46:04,VALID,1004.38,VALID,0,VALID,94.2472,VALID,0.100563,VALID,23.9353,VALID,353,VALID,0.168359,